Погода Красная Гора

Погода Красная Гора : погода сейчас, прогноз погоды и архив. Всё, что Вы хотите узнать о погоде Красная Гора!

Хотите узнать прогноз погоды Красная Гора? Тогда Вам сюда: Погода Красная Гора

Поиск расширенной информации на нашем сайте:

Другие новости

Новости СМИ2

Главная страница сайта

Новости сайта

02.10.2013

Напоминаем, что на нашем новом сайте вы можете получить высокодетализированные прогнозы погоды по пунктам России, СНГ и мира (включающие важные для авиации метеовеличины, такие как направление и скорость ветра, видимость, явления погоды, количество и форма облачности, нижняя и верхняя граница облачности), а также ознакомиться с разнообразными материалами по авиационной метеорологии и подборкой полезных ссылок на эту тему.

Сайт Метеоцентр.Азия посвящён разработке технологий оптимизации авиаметеорологического обслуживания, включая проектирование и перспективное создание нескольких автоматизированных авиаметеорологических систем:
- система выпуска высокодетальных прогностических карт явлений погоды для нижнего воздушного пространства по России и ближнему зарубежью;
- система верификации прогнозов TAF (выпускаемых синоптиками официальных АМСГ РФ и ближнего зарубежья) и AUTOTAF (выпускаемых сайтом Метеоцентр.Азия) - выявление ошибок, онлайн-сопоставление с фактической погодой METAR, автоматическое внесение коррективов в прогнозы при резком отклонении фактической погоды от прогноза, подсчёт оправдываемости прогнозов по элементам и в целом;
- система обработки, анализа и отображения авиаметеорологической информации для применения провайдерами метеорологической информации.


Погода Красная Гора - сегодня

Время (UTC), дата Ветер
(°,м/с) 
Видим.   Явления Облачность Т
(°С)
Тd
(°С)
f(%) Тe
(°С)
Pmin
(гПа)
dP
(гПа)
Po
(мм)
O2
(г/м3)
Тmin Tmax R s Состояние
почвы
21 17.01.17 240 (ЮЗ) 8000 м  дымка  6/6 800 м 
[Sc]
-8.2 -9.2 92 -8  1037.9  764  318           
00 18.01.17 240 (ЮЗ) 8000 м  дымка  10/10 700 м 
[Sc]
-7.7 -8.7 93 -7  1038.5  0.6  764  318           
03 18.01.17 280 (З) 5000 м  дымка  10/10 210 м 
[St]
-9.2 -9.9 95 -9  1038.8  0.2  764  320  -9.3         
06 18.01.17 240 (ЮЗ) 0500 м  туман  ?/?  
-9.3 -10.5 91 -9  1039.5  0.7  765  320  -9.7      10  равномерный
мокрый или
старый снег
100% 
09 18.01.17 220 (ЮЗ) 4000 м  дымка{туман}  10/10 300 м 
[St]
-7.5 -8.5 93 -7  1040.3  0.9  766  318           
12 18.01.17 270 (З) 4000 м  дымка{туман}  10/10 300 м 
[St]
-5.1 -5.8 95 -5  1039.9  -0.3  765  315           
15 18.01.17 260 (З) 5000 м  дымка  10/8 800 м средняя 
[Sc|As op]
-5.1 -6.1 93 -5  1040.3  0.4  766  315           
18 18.01.17 270 (З) 9000 м  дымка  10/10 600 м 
[Sc]
-5.9 -7.4 89 -7  1040.7  0.4  766  316    -4.9       
21 18.01.17 200 (Ю) 9000 м  дымка  8/8 900 м 
[Sc]
-6.2 -7.7 89 -8  1040.3  -0.4  766  316           
00 19.01.17 200 (Ю) 7000 м  дымка  10/0 средняя 
[As op]
-8.6 -9.3 95 -10  1039.8  -0.8  765  319           
03 19.01.17 190 (Ю) 3000 м  дымка  8/8 700 м 
[Sc]
-10.9 -11.5 95 -11  1039.2  -0.6  765  322  -11         
06 19.01.17 200 (Ю) 4000 м  дымка  10/10 330 м 
[St]
-11.4 -12 95 -11  1038  -1.2  764  322  -12.3      10  равномерный
мокрый или
старый снег
100% 
09 19.01.17 220 (ЮЗ) 4000 м  дымка  9/9 600 м 
[Sc]
-7.2 -8.1 93 -9  1037.2  -0.5  763  317           
12 19.01.17 220 (ЮЗ) 10 км    8/4 600 м средняя 
[Sc|Ac trans]
-7.3 -9 88 -10  1034.8  -2.4  761  316           
15 19.01.17 210 (ЮЗ) 10 км    10/8 800 м средняя 
[Sc|As op]
-7.5 -9.2 88 -11  1033.3  -1.5  760  316           
18 19.01.17 210 (ЮЗ) 10 км    10/8 600 м средняя 
[Sc|As op]
-7.2 -8.9 88 -11  1030.7  -2.5  758  315    -6.3       
21 19.01.17 220 (ЮЗ) 4{10}  10 км    10/4 300 м кучево-дожд., средняя 
[Cb cap|As op]
-7 -8.7 88 -11  1028.9  -1.7  757  314           
00 20.01.17 220 (ЮЗ) 10 км  {ливн. осадки}  10/3 300 м кучево-дожд., средняя 
[Cb cap|As op]
-6.1 -7.6 89 -9  1027  -1.8  756  312           
03 20.01.17 240 (ЮЗ) 4000 м  слаб. ливневой снег  10/8 400 м кучево-дожд., средняя 
[Cb cap|As op]
-5.4 -6.8 90 -9  1025.6  -1.4  755  311  -7.2    0.6     
06 20.01.17 230 (ЮЗ) 4000 м  дымка{ливн. осадки}  10/10 240 м 
[St]
-4.9 -5.5 96 -8  1024.6  -0.9  754  310  -7.2    0.6  10  равномерный
сухой снег
100% 
09 20.01.17 250 (З) 4000 м  дымка  10/10 270 м 
[St]
-3.8 -4.7 93 -7  1024.8  0.3  754  309           
12 20.01.17 240 (ЮЗ) 4000 м  дымка  10/10 400 м 
[St]
-2 -3.3 91 -5  1023.7  -1  754  306           
15 20.01.17 240 (ЮЗ) 9000 м  дымка  10/10 480 м 
[Sc]
-1.7 -3.3 89 -4  1023.6  -0.1  754  306           
18 20.01.17 240 (ЮЗ) 8000 м  дымка  10/10 600 м 
[Sc]
-1.4 -2.6 92 -3  1022.8  -0.7  753  305    -1.3       
21 20.01.17 230 (ЮЗ) 7000 м  дымка  10/10 480 м 
[Sc]
-1.4 -2.3 94 -4  1021.7  -1.1  752  305           
Время (UTC), дата Ветер
(°,м/с) 
Видим.   Явления Облачность Т
(°С)
Тd
(°С)
f(%) Тe
(°С)
Pmin
(гПа)
dP
(гПа)
Po
(мм)
O2
(г/м3)
Тmin Tmax R s Состояние
почвы

Для получения пояснительной информации подведите курсор к названию столбца.

ПОГОДА Красная Гора - архив

Всё, что Вы хотите узнать о погоде Красная Гора - удобно и подробно!

Выберите нужную дату (начиная с 1 января 2015* года) и нажмите кнопку "Найти".
Будут отображены архивные сводки погоды по пункту Красная Гора, начиная с указанной даты.


Отображать данные в формате CSV (для использования в таблицах Excel)


Внимание! Наш архив погоды предназначен исключительно для личного некоммерческого использования в познавательных целях. Если Вам необходимы официальные справки о состоянии погоды (для производственных, юридических, коммерческих и т.п. целей), обращайтесь в органы Росгидромета.

*Примечание: данная дата относится к архиву по метеостанциям СССР (Россия, СНГ, Балтия).
Архив по метеостанциям Зарубежной Европы и Азии (кроме Китая) хранится 10 дней, по другим регионам земного шара (Китай, Африка, Америка, Австралия, Океания) - 1 день.

Красная Гора - район местоположения метеостанции


Название, широта, долгота, высота метеостанции:
Красная Гора 53°ш. 31.6°д. 148 м над ур. моря [Российская Федерация]

Дополнительная информация

В oтличие oт бoльшинства пoгoдных сайтoв мы публикуем пoдрoбную метеoинфoрмацию в детальнoм прoфессиoнальнoм фoрмате.

Характеристики температуры и влажнoсти вoздуха измеряются на высoте 2 м в тени вдали oт зданий и деревьев.
Скoрoсть ветра измеряется на высoте 10 м (на урoвне рoста челoвека скoрoсть ветра ниже в 1.5-2 раза). Если метеoстанция нахoдится в гoрoде или в лесу, тo скoрoсть ветра занижена на 2-4 м/с пo сравнению с oткрытым местoм. Скoрoсть ветра над акватoриями крупных рек и oзёр, а также на вершинах хoлмoв на 2-5 м/с выше, чем в oбычных услoвиях.
Атмoсфернoе давление в разных тoчках местнoсти мoжет значительнo oтличаться oт давления на метеoстанции, в зависимoсти oт услoвий рельефа (при пoдъёме на 10 м давление пoнижается примернo на 1 мм рт.ст.).